Location: *
(43.2048°N, 0.1612°E)
Time: 22:01:34
(UTC+00:00)

Meteor 1-27 Rocket - Pass Details

Date: 30 September 2023
Orbit: 829 x 910 km, 81.3° (Epoch: 06 December)

Event Time Altitude Azimuth Distance (km) Brightness Sun altitude
Rises 05:11:02 0° 207° (SSW) 3,374 6.5 -8.9°
Reaches altitude 10° 05:13:31 10° 214° (SSW) 2,452 5.8 -8.4°
Maximum altitude 05:18:49 45° 286° (WNW) 1,155 4.0 -7.4°
Drops below altitude 10° 05:24:16 10° 358° (N) 2,517 6.2 -6.5°
Sets 05:26:51 0° 5° (N) 3,472 7.0 -6.0°
